RH
56 56 59 61 59 57 59 55 54 58 59 54 53 51 49 48 47 44 41 40 41 40 38 38 37 39 38 39 42 48 53 57 51 55 55 57 61 54 42 45 44 43 39
51 50 54 56 54 55 59 58 55 54 47 42 42 43 44 45 45 43 45 48 46 44 45 46 43 44 46 41 42 47 49 58 54 53 57 59 55 44 49 47 44 39 40
49 49 51 51 52 54 58 59 52 48 37 39 44 44 46 50 55 54 55 58 61 53 55 60 52 52 50 49 52 56 55 71 63 56 56 62 49 56 47 44 43 41 39
48 47 49 52 50 54 50 44 41 40 44 48 48 52 55 59 58 53 55 50 54 59 55 52 56 51 53 50 58 60 69 76 67 55 57 52 55 51 42 39 40 41 44
47 45 46 49 46 43 39 39 43 44 48 52 53 53 53 47 46 43 47 49 54 57 53 46 46 52 56 50 55 63 73 78 62 55 58 58 54 45 37 41 40 43 45
44 44 41 42 36 34 38 45 47 50 51 49 50 53 40 41 39 45 54 54 56 51 52 50 42 44 51 44 61 71 79 67 65 65 59 55 49 44 39 43 40 43 44
41 43 39 37 31 40 48 49 51 52 52 48 48 36 36 37 39 50 56 66 64 48 38 42 42 42 39 54 69 79 72 65 69 58 55 53 46 46 42 45 49 52 49
39 39 33 27 34 40 47 51 50 51 50 45 35 29 32 36 42 49 55 64 49 39 34 33 37 47 50 52 67 73 69 63 61 50 55 49 46 43 46 43 52 45 52
36 29 26 31 36 42 46 47 50 49 44 37 26 25 27 34 42 48 57 62 47 41 38 36 45 51 54 63 68 65 63 59 50 49 53 47 48 47 43 46 47 50 50
30 26 27 29 32 39 45 46 48 43 37 28 24 28 30 35 42 49 54 58 58 52 41 38 43 53 59 62 64 66 60 55 50 51 52 47 45 39 40 45 46 44 41
36 28 28 31 33 39 43 46 45 38 32 30 39 35 35 40 42 44 46 52 55 51 48 50 51 52 56 64 73 60 53 50 47 47 48 42 40 37 39 42 42 41 41
40 33 28 31 35 41 43 43 39 36 32 47 51 39 38 42 38 47 50 47 55 60 65 67 64 59 55 62 68 51 53 50 44 43 40 38 34 35 36 37 40 39 41
38 29 27 30 35 40 41 38 38 39 39 50 59 52 44 42 47 50 59 47 57 61 64 70 69 65 60 59 56 54 54 53 49 40 39 35 33 34 35 34 38 38 38
41 33 27 32 34 39 38 39 38 31 47 62 59 59 56 56 61 58 58 51 40 52 45 56 62 65 63 66 63 60 56 52 49 44 40 36 37 34 31 31 32 34 34
41 38 31 35 36 40 40 45 36 36 49 51 60 55 53 55 63 68 65 66 56 56 41 41 47 58 62 66 58 58 53 50 49 47 40 42 40 38 34 32 32 33 34
38 40 38 40 37 43 48 60 38 46 49 58 59 64 63 57 62 63 70 65 53 50 43 53 51 54 51 58 59 53 49 50 55 56 53 50 47 41 37 34 33 32 33
38 39 44 49 44 44 54 64 50 45 51 58 60 66 70 69 64 64 68 69 49 42 39 42 49 48 53 58 59 57 53 56 57 54 49 50 47 44 40 38 36 37 38
41 44 50 56 53 46 49 50 49 45 55 57 61 62 63 67 65 59 58 52 52 44 37 35 41 42 51 53 56 58 57 58 56 53 46 40 39 39 39 37 35 33 30
42 44 48 52 51 56 65 67 44 54 55 55 61 61 63 68 72 58 53 50 46 41 37 37 38 41 44 47 47 51 54 53 50 46 39 38 34 35 32 34 35 35 31
46 44 48 49 55 48 51 47 42 47 52 54 58 58 60 68 65 64 54 56 60 47 40 37 39 43 43 43 45 41 41 42 39 39 36 35 34 32 32 31 33 35 30
47 45 44 43 45 46 44 49 56 47 51 56 56 53 55 67 76 55 50 53 59 47 39 39 40 40 40 41 40 40 44 42 38 39 37 35 38 36 36 40 34 35 39
48 44 41 37 35 39 39 46 48 46 59 54 58 58 51 59 65 53 54 52 41 37 40 41 38 41 41 36 36 34 38 37 42 41 38 38 36 36 41 43 44 43 40
45 42 37 36 36 37 38 39 47 50 52 59 61 54 49 52 53 56 50 49 41 39 38 41 41 45 39 34 35 38 36 40 45 41 37 36 35 40 43 43 46 46 44
49 42 37 36 37 38 38 36 43 46 52 54 55 51 48 47 48 54 53 48 43 40 36 41 40 38 36 40 41 44 42 44 44 41 39 37 38 40 42 42 44 43 43
46 42 38 35 37 37 40 35 40 44 45 50 54 46 44 44 46 46 45 46 47 46 38 40 43 38 39 42 43 44 43 45 43 42 41 41 42 41 40 40 40 39 40
47 44 40 36 36 36 41 39 43 45 46 48 47 46 47 45 46 45 44 43 48 46 38 38 41 43 39 40 41 43 44 45 46 43 42 43 45 44 42 40 39 41 42